TimeEDT,TemperatureF,Dew PointF,Humidity,Sea Level PressureIn,VisibilityMPH,Wind Direction,Wind SpeedMPH,Gust SpeedMPH,PrecipitationIn,Events,Conditions,WindDirDegrees,DateUTC
12:54 AM,51.1,46.0,83,30.15,10.0,East,3.5,-,N/A,,Mostly Cloudy,100,2013-10-06 04:54:00
1:54 AM,51.1,45.0,80,30.15,10.0,Calm,Calm,-,N/A,,Mostly Cloudy,0,2013-10-06 05:54:00
2:54 AM,52.0,46.0,80,30.15,10.0,Calm,Calm,-,N/A,,Overcast,0,2013-10-06 06:54:00
3:54 AM,50.0,44.1,80,30.13,10.0,Calm,Calm,-,N/A,,Clear,0,2013-10-06 07:54:00
4:54 AM,52.0,44.1,74,30.14,10.0,NNE,3.5,-,N/A,,Overcast,20,2013-10-06 08:54:00
5:54 AM,52.0,44.1,74,30.14,10.0,Calm,Calm,-,N/A,,Overcast,0,2013-10-06 09:54:00
6:54 AM,52.0,42.1,69,30.14,10.0,Calm,Calm,-,N/A,,Overcast,0,2013-10-06 10:54:00
7:54 AM,54.0,43.0,66,30.13,10.0,NE,3.5,-,N/A,,Overcast,40,2013-10-06 11:54:00
8:54 AM,55.0,43.0,64,30.14,10.0,Calm,Calm,-,N/A,,Overcast,0,2013-10-06 12:54:00
9:54 AM,55.9,44.1,64,30.14,10.0,South,3.5,-,N/A,,Overcast,190,2013-10-06 13:54:00
10:54 AM,57.9,45.0,62,30.12,10.0,South,3.5,-,N/A,,Overcast,180,2013-10-06 14:54:00
11:54 AM,59.0,46.9,64,30.12,10.0,SSE,5.8,-,N/A,,Overcast,160,2013-10-06 15:54:00
12:45 PM,57.2,50.0,77,30.09,10.0,SE,5.8,-,0.00,Rain,Light Rain,140,2013-10-06 16:45:00
12:54 PM,57.9,50.0,75,30.09,10.0,SSE,4.6,-,0.00,Rain,Light Rain,160,2013-10-06 16:54:00
1:54 PM,60.1,51.1,72,30.06,10.0,SE,8.1,-,0.00,,Overcast,130,2013-10-06 17:54:00
2:54 PM,59.0,51.1,75,30.06,6.0,SSE,5.8,-,0.01,Rain,Light Rain,160,2013-10-06 18:54:00
3:54 PM,54.0,51.1,90,30.06,6.0,ESE,9.2,-,0.05,Rain,Light Rain,120,2013-10-06 19:54:00
4:19 PM,53.6,51.8,94,30.05,3.0,ESE,6.9,-,0.07,Rain,Rain,120,2013-10-06 20:19:00
4:54 PM,54.0,52.0,93,30.05,7.0,SE,4.6,-,0.12,Rain,Light Rain,130,2013-10-06 20:54:00
5:17 PM,55.4,51.8,88,30.05,9.0,SE,6.9,-,0.03,Rain,Light Rain,140,2013-10-06 21:17:00
5:32 PM,53.6,51.8,94,30.04,2.5,SE,9.2,-,0.09,Rain,Rain,140,2013-10-06 21:32:00
5:40 PM,53.6,51.8,94,30.05,7.0,SSE,6.9,-,0.10,Rain,Light Rain,150,2013-10-06 21:40:00
5:54 PM,55.0,52.0,89,30.04,10.0,SSE,9.2,-,0.10,Rain,Light Rain,150,2013-10-06 21:54:00
6:06 PM,55.4,51.8,88,30.04,10.0,SSE,8.1,-,0.00,,Overcast,160,2013-10-06 22:06:00
6:54 PM,54.0,52.0,93,30.05,10.0,ESE,4.6,-,0.00,,Overcast,110,2013-10-06 22:54:00
7:54 PM,54.0,52.0,93,30.05,10.0,SE,6.9,-,N/A,,Overcast,130,2013-10-06 23:54:00
8:54 PM,55.0,52.0,89,30.03,10.0,ESE,6.9,-,N/A,,Overcast,120,2013-10-07 00:54:00
9:54 PM,57.0,53.1,87,30.02,10.0,SSE,10.4,-,N/A,,Overcast,160,2013-10-07 01:54:00
10:54 PM,57.0,53.1,87,30.01,10.0,SE,4.6,-,N/A,,Overcast,130,2013-10-07 02:54:00
11:54 PM,57.0,53.1,87,29.99,10.0,ESE,3.5,-,N/A,,Overcast,110,2013-10-07 03:54:00